Location: Hains Lake
(37.8540°N, 99.8578°W)
Time: 04:25:28
(UTC+00:00)

Cosmos 1340 - Pass Details

Date: 11 December 2019
Orbit: 501 x 506 km, 81.2° (Epoch: 27 January)

Event Time Altitude Azimuth Distance (km) Brightness Sun altitude
Rises 12:14:50 0° 195° (SSW) 2,582 6.3 -17.2°
Reaches altitude 10° 12:16:57 10° 199° (SSW) 1,704 5.3 -16.8°
Maximum altitude 12:20:39 61° 280° (W) 573 2.6 -16.1°
Drops below altitude 10° 12:24:23 10° 2° (N) 1,720 5.2 -15.4°
Sets 12:26:33 0° 6° (N) 2,610 6.1 -15.0°
